[[{"header":{"parameterUnit":"m.s-1","parameterCategory":1,"la1":30.2991,"la2":30.254,"lo1":-89.0895,"lo2":-89.0444,"dy":0.0017,"dx":0.0017,"nx":28,"ny":28,"refTime":"2024-08-05T03:00:00:Z","depth":0,"parameterNumber":2,"parameterNumberName":"U-component_of_WINDS"},"data":[0,0,0,0,0,0,0,0,0,0,0,0,0,0,0,0,0,0,0,0,0,0,0,0,0,0,0,0,0,0,0,0,0,0,0,0,0,0,0,0,0,0,0,0,0,0,0,0,0,0,0,0,0,0,0,0,0,0,-1.344,-1.344,0,-1.3429,-1.3429,-1.3429,-1.3395,-1.3394,-1.3394,-1.3393,-1.3383,-1.3383,-1.3384,0,0,0,0,0,0,0,0,0,0,0,0,0,-1.3432,-1.3432,-1.344,-1.344,-1.344,-1.3429,-1.3429,-1.3429,-1.3395,-1.3394,-1.3393,-1.3393,-1.3383,-1.3383,-1.3384,0,0,0,0,0,0,0,0,0,0,0,0,0,-1.343,-1.3433,-1.344,-1.3422,-1.342,-1.3429,-1.3429,-1.3429,-1.3395,-1.3394,-1.3393,-1.3392,-1.3383,-1.3383,-1.3384,-1.341,0,0,-1.3386,-1.3386,0,0,0,0,0,0,0,0,-1.343,-1.343,-1.3424,-1.3423,-1.3421,-1.3412,-1.3422,-1.3423,-1.3396,-1.3405,-1.3393,-1.3392,-1.3394,-1.3393,-1.3394,-1.341,-1.3409,-1.3386,-1.3386,-1.3387,-1.3387,0,0,0,0,0,0,0,-1.343,-1.343,-1.3436,-1.3424,-1.3422,-1.3414,-1.3413,-1.3422,-1.3406,-1.3404,-1.3401,-1.3401,-1.3392,-1.3393,-1.3393,-1.3409,-1.3386,-1.3386,-1.3387,-1.3387,-1.3447,-1.3448,0,0,0,0,0,0,-1.3433,-1.3431,-1.3436,-1.3435,-1.3423,-1.3415,-1.3413,-1.3416,-1.3405,-1.3403,-1.3402,-1.3399,-1.3393,-1.3393,-1.3393,-1.3423,-1.3387,-1.3387,-1.3388,-1.3446,-1.3447,-1.3448,0,0,0,0,0,0,-1.3433,-1.3434,-1.3436,-1.3432,-1.3432,-1.3416,-1.342,-1.3417,-1.3417,-1.3404,-1.3401,-1.3405,-1.3392,-1.3392,-1.3406,-1.3423,-1.3387,-1.3388,-1.3444,-1.3446,-1.3448,-1.3485,0,0,0,0,0,0,-1.3433,-1.3434,-1.3444,-1.3433,-1.3432,-1.345,-1.3421,-1.3417,-1.3418,-1.3415,-1.3406,-1.3404,-1.3391,-1.3405,-1.3407,-1.3423,-1.3389,-1.3443,-1.3445,-1.3447,-1.3482,-1.3488,-1.3493,0,0,0,0,0,-1.3433,-1.3455,-1.3444,-1.3445,-1.3444,-1.3451,-1.3451,-1.3435,-1.342,-1.343,-1.3421,-1.3404,-1.342,-1.3407,-1.3408,-1.3425,-1.3442,-1.3444,-1.3447,-1.348,-1.3487,-1.3492,0,0,0,0,0,0,-1.3468,-1.3453,-1.3441,-1.346,-1.3457,-1.3445,-1.3457,-1.3443,-1.3444,-1.3441,-1.3421,-1.342,-1.3437,-1.3432,-1.3418,-1.345,-1.3428,-1.3431,-1.3453,-1.3459,-1.3464,-1.3465,-1.3389,0,0,0,0,0,-1.3478,-1.3485,-1.3471,-1.3489,-1.3488,-1.3473,-1.3475,-1.3463,-1.3459,-1.3458,-1.345,-1.3447,-1.3452,-1.3455,-1.3458,-1.3481,-1.3479,-1.3493,-1.3498,-1.3502,-1.3506,-1.3518,-1.3524,-1.3457,-1.3457,-1.3457,0,0,-1.3499,-1.3492,-1.3497,-1.3496,-1.3492,-1.35,-1.3472,-1.3481,-1.3486,-1.3459,-1.3472,-1.3467,-1.3462,-1.3481,-1.3489,-1.3477,-1.3524,-1.3506,-1.3509,-1.351,-1.3521,-1.3528,-1.3533,-1.3459,-1.3459,-1.3458,0,0,-1.3541,-1.3536,-1.3551,-1.3547,-1.3541,-1.3531,-1.3535,-1.3525,-1.352,-1.3533,-1.3512,-1.3519,-1.3526,-1.3524,-1.3524,-1.3565,-1.355,-1.3566,-1.3594,-1.3606,-1.3611,-1.3616,-1.3631,-1.3637,-1.3569,-1.357,-1.357,0,-1.3568,-1.3578,-1.356,-1.357,-1.3571,-1.3546,-1.3561,-1.3559,-1.3555,-1.3556,-1.3543,-1.3552,-1.3547,-1.3566,-1.3576,-1.3576,-1.358,-1.3568,-1.3612,-1.3616,-1.362,-1.3635,-1.364,-1.3572,-1.3571,-1.3571,-1.3571,0,-1.3612,-1.3619,-1.3632,-1.3628,-1.363,-1.3643,-1.3627,-1.3631,-1.3618,-1.361,-1.3623,-1.3616,-1.3618,-1.3621,-1.3609,-1.3638,-1.3631,-1.3615,-1.3593,-1.3629,-1.3642,-1.3648,-1.3575,-1.3574,-1.3573,-1.3573,0,0,-1.3677,-1.3663,-1.3668,-1.3666,-1.3658,-1.3663,-1.3674,-1.3676,-1.368,-1.3677,-1.3687,-1.3694,-1.368,-1.368,-1.3667,-1.3678,-1.3711,-1.3661,-1.366,-1.3671,-1.3743,-1.3755,-1.3762,-1.3701,-1.3702,-1.3703,-1.3743,0,-1.3718,-1.3736,-1.372,-1.3742,-1.3749,-1.3725,-1.3735,-1.3732,-1.3723,-1.3728,-1.3719,-1.3725,-1.3705,-1.3705,-1.3714,-1.3705,-1.3726,-1.3702,-1.371,-1.3711,-1.3713,-1.3769,-1.3782,-1.3821,-1.3748,-1.3749,-1.375,0,-1.3767,-1.3767,-1.379,-1.378,-1.3782,-1.3792,-1.3792,-1.3796,-1.3791,-1.3785,-1.3784,-1.3769,-1.378,-1.3758,-1.3773,-1.3757,-1.3759,-1.3756,-1.3757,-1.3758,-1.3733,-1.3772,-1.3833,-1.3839,-1.3758,-1.3757,-1.3756,0,-1.3814,-1.3819,-1.3833,-1.3832,-1.3821,-1.3828,-1.3824,-1.3818,-1.382,-1.3819,-1.382,-1.3822,-1.3823,-1.3824,-1.381,-1.3795,-1.3827,-1.3803,-1.3823,-1.3823,-1.3831,-1.3831,-1.3894,-1.3832,-1.3831,-1.3831,-1.3831,0,-1.3861,-1.3876,-1.3854,-1.3863,-1.3879,-1.386,-1.3877,-1.387,-1.3865,-1.3872,-1.3852,-1.3859,-1.3839,-1.3845,-1.3834,-1.3848,-1.3849,-1.3844,-1.3841,-1.3847,-1.3847,-1.3849,-1.3846,-1.3833,-1.3832,-1.3832,-1.3832,0,-1.3916,-1.3901,-1.3916,-1.3904,-1.3901,-1.3913,-1.3903,-1.3911,-1.3901,-1.3911,-1.3912,-1.3897,-1.3903,-1.3888,-1.3892,-1.3884,-1.3905,-1.3898,-1.3907,-1.3905,-1.3926,-1.3924,-1.3993,-1.4001,-1.3932,-1.3933,-1.3933,0,-1.3948,-1.3959,-1.3948,-1.3951,-1.3948,-1.3953,-1.3955,-1.3937,-1.3939,-1.3935,-1.3943,-1.3947,-1.3949,-1.3959,-1.3948,-1.3951,-1.3944,-1.3967,-1.3944,-1.3949,-1.3945,-1.3945,-1.3946,-1.3973,-1.3973,-1.3974,-1.3975,0,-1.4006,-1.3998,-1.4001,-1.4002,-1.4004,-1.4004,-1.4002,-1.4006,-1.3986,-1.399,-1.3995,-1.3997,-1.4,-1.4004,-1.4004,-1.4,-1.3985,-1.3982,-1.3987,-1.3993,-1.3998,-1.3996,-1.3921,-1.3981,-1.398,-1.398,-1.3979,-1.3979,-1.4051,-1.4059,-1.4053,-1.4057,-1.4054,-1.4052,-1.4059,-1.405,-1.4054,-1.4055,-1.4044,-1.4052,-1.4046,-1.4045,-1.4042,-1.4048,-1.4038,-1.4044,-1.4046,-1.4048,-1.4052,-1.3996,-1.4048,-1.4048,-1.4048,-1.4048,-1.4048,0,-1.4108,-1.4103,-1.4107,-1.4105,-1.4108,-1.4092,-1.4089,-1.4093,-1.41,-1.4096,-1.4098,-1.4105,-1.4108,-1.4098,-1.4101,-1.4107,-1.41,-1.4109,-1.4109,-1.4108,-1.4061,-1.4057,-1.4114,-1.4114,-1.4114,-1.4114,-1.4114,-1.4114,-1.4139,-1.4153,-1.4145,-1.4157,-1.4151,-1.4158,-1.4158,-1.4157,-1.4154,-1.4161,-1.4164,-1.4157,-1.4151,-1.4153,-1.4156,-1.4153,-1.4155,-1.4166,-1.4161,-1.4118,-1.4111,-1.4105,-1.4101,-1.4167,-1.4167,-1.4207,-1.4208,-1.4208]},{"header":{"parameterUnit":"m.s-1","parameterCategory":1,"la1":30.2991,"la2":30.254,"lo1":-89.0895,"lo2":-89.0444,"dy":0.0017,"dx":0.0017,"nx":28,"ny":28,"refTime":"2024-08-05T03:00:00:Z","depth":0,"parameterNumber":3,"parameterNumberName":"V-component_of_WINDS"},"data":[0,0,0,0,0,0,0,0,0,0,0,0,0,0,0,0,0,0,0,0,0,0,0,0,0,0,0,0,0,0,0,0,0,0,0,0,0,0,0,0,0,0,0,0,0,0,0,0,0,0,0,0,0,0,0,0,0,0,-3.6089,-3.609,0,-3.6161,-3.6162,-3.6163,-3.6156,-3.6155,-3.6154,-3.6153,-3.6222,-3.6225,-3.6228,0,0,0,0,0,0,0,0,0,0,0,0,0,-3.5944,-3.5947,-3.6089,-3.609,-3.6091,-3.6161,-3.6162,-3.6163,-3.6156,-3.6155,-3.6153,-3.6152,-3.6221,-3.6225,-3.6228,0,0,0,0,0,0,0,0,0,0,0,0,0,-3.6011,-3.5948,-3.6089,-3.6096,-3.6098,-3.6161,-3.6162,-3.6163,-3.6156,-3.6155,-3.6153,-3.6152,-3.622,-3.6225,-3.6229,-3.6288,0,0,-3.6242,-3.6244,0,0,0,0,0,0,0,0,-3.6007,-3.6016,-3.6094,-3.6096,-3.6098,-3.6148,-3.6136,-3.6205,-3.6157,-3.6134,-3.6153,-3.6151,-3.6199,-3.6205,-3.6222,-3.6291,-3.6294,-3.6242,-3.6245,-3.6247,-3.6248,0,0,0,0,0,0,0,-3.6002,-3.6013,-3.6118,-3.6096,-3.6097,-3.6095,-3.6103,-3.6149,-3.6175,-3.6136,-3.6136,-3.6144,-3.6199,-3.6217,-3.6223,-3.6296,-3.6242,-3.6246,-3.6249,-3.625,-3.6419,-3.6421,0,0,0,0,0,0,-3.5996,-3.6009,-3.6115,-3.612,-3.6047,-3.6099,-3.6108,-3.6133,-3.6174,-3.6179,-3.6146,-3.6144,-3.6211,-3.6218,-3.6226,-3.6299,-3.6247,-3.6251,-3.6253,-3.6417,-3.642,-3.6422,0,0,0,0,0,0,-3.5993,-3.6006,-3.6112,-3.6064,-3.6078,-3.6103,-3.6132,-3.6136,-3.6154,-3.6182,-3.6186,-3.616,-3.621,-3.622,-3.6273,-3.6302,-3.6253,-3.6257,-3.6415,-3.6418,-3.6421,-3.6447,0,0,0,0,0,0,-3.5989,-3.6005,-3.6028,-3.6065,-3.608,-3.616,-3.6134,-3.6138,-3.6162,-3.616,-3.6196,-3.62,-3.6209,-3.6267,-3.6278,-3.6307,-3.626,-3.6413,-3.6417,-3.642,-3.6443,-3.645,-3.6456,0,0,0,0,0,-3.5984,-3.6031,-3.603,-3.6042,-3.611,-3.6162,-3.617,-3.6181,-3.6164,-3.6188,-3.6206,-3.6199,-3.6297,-3.6273,-3.6284,-3.6315,-3.6411,-3.6415,-3.642,-3.6441,-3.6449,-3.6455,0,0,0,0,0,0,-3.5996,-3.6036,-3.6035,-3.6096,-3.6125,-3.616,-3.619,-3.6189,-3.6223,-3.622,-3.623,-3.6238,-3.6293,-3.6309,-3.6281,-3.6376,-3.6352,-3.6358,-3.6363,-3.6371,-3.6377,-3.6373,-3.6264,0,0,0,0,0,-3.6006,-3.6045,-3.6078,-3.6128,-3.6144,-3.6164,-3.6187,-3.6193,-3.6223,-3.6236,-3.6257,-3.6287,-3.6324,-3.6348,-3.6384,-3.6445,-3.6453,-3.6472,-3.6478,-3.6483,-3.6489,-3.6525,-3.6534,-3.6436,-3.6436,-3.6436,0,0,-3.6026,-3.6053,-3.6077,-3.6131,-3.6155,-3.6195,-3.6175,-3.6217,-3.6247,-3.6242,-3.6295,-3.6312,-3.6345,-3.6403,-3.643,-3.6419,-3.6518,-3.6489,-3.6493,-3.6496,-3.653,-3.6539,-3.6547,-3.6439,-3.6438,-3.6438,0,0,-3.6084,-3.6108,-3.6154,-3.6179,-3.6216,-3.6229,-3.624,-3.6276,-3.6288,-3.6341,-3.6339,-3.6373,-3.6437,-3.6462,-3.6482,-3.6551,-3.6547,-3.6562,-3.6595,-3.6629,-3.6636,-3.6643,-3.6669,-3.6678,-3.6568,-3.6568,-3.6568,0,-3.6105,-3.6166,-3.6177,-3.6221,-3.6246,-3.6244,-3.629,-3.6313,-3.6359,-3.6376,-3.6363,-3.6444,-3.6466,-3.6531,-3.6548,-3.6564,-3.6577,-3.6558,-3.6635,-3.6642,-3.6648,-3.6673,-3.6683,-3.657,-3.6569,-3.6569,-3.6569,0,-3.619,-3.6232,-3.6265,-3.6312,-3.6339,-3.6384,-3.6402,-3.6428,-3.6432,-3.6447,-3.6502,-3.6528,-3.657,-3.6586,-3.6589,-3.6652,-3.6644,-3.6632,-3.6608,-3.6659,-3.6683,-3.6692,-3.6572,-3.6572,-3.6571,-3.6571,0,0,-3.6257,-3.6311,-3.6323,-3.6345,-3.6386,-3.6419,-3.6463,-3.6506,-3.6529,-3.6561,-3.6599,-3.6654,-3.6644,-3.6668,-3.6673,-3.6703,-3.6758,-3.6688,-3.6689,-3.6701,-3.683,-3.6839,-3.685,-3.6755,-3.6756,-3.6758,-3.6828,0,-3.632,-3.6402,-3.6414,-3.6485,-3.6525,-3.6524,-3.6563,-3.6593,-3.6608,-3.6643,-3.6659,-3.6699,-3.6683,-3.6697,-3.6726,-3.6745,-3.6784,-3.674,-3.679,-3.6792,-3.6784,-3.6862,-3.6872,-3.6936,-3.6837,-3.6838,-3.6839,0,-3.6405,-3.6442,-3.6518,-3.6555,-3.6572,-3.6607,-3.6648,-3.6682,-3.6715,-3.6724,-3.6751,-3.6754,-3.68,-3.6773,-3.6837,-3.6807,-3.6828,-3.684,-3.6843,-3.6849,-3.682,-3.6871,-3.6957,-3.6967,-3.6854,-3.6853,-3.6851,0,-3.6449,-3.6516,-3.6571,-3.659,-3.6634,-3.6659,-3.6679,-3.671,-3.6736,-3.6771,-3.6787,-3.6826,-3.6848,-3.6878,-3.6891,-3.6871,-3.6955,-3.6929,-3.6964,-3.6964,-3.6982,-3.6981,-3.7074,-3.6994,-3.6994,-3.6994,-3.6993,0,-3.6519,-3.6566,-3.6592,-3.6625,-3.6678,-3.6691,-3.6742,-3.6761,-3.6789,-3.6826,-3.6827,-3.6861,-3.6875,-3.6912,-3.6922,-3.6974,-3.6983,-3.6992,-3.6994,-3.6993,-3.6992,-3.7008,-3.7004,-3.6996,-3.6996,-3.6995,-3.6995,0,-3.6577,-3.6596,-3.6656,-3.6694,-3.6705,-3.6742,-3.6774,-3.6806,-3.6821,-3.6868,-3.688,-3.6904,-3.6947,-3.6963,-3.7014,-3.7021,-3.7082,-3.708,-3.7072,-3.7073,-3.7107,-3.7104,-3.7214,-3.723,-3.7138,-3.7139,-3.714,0,-3.6621,-3.6658,-3.67,-3.6726,-3.6747,-3.6788,-3.6814,-3.6828,-3.6856,-3.6897,-3.6925,-3.6968,-3.7004,-3.7073,-3.7094,-3.7134,-3.7134,-3.7169,-3.7139,-3.7137,-3.7136,-3.7134,-3.7138,-3.7175,-3.7176,-3.7177,-3.7177,0,-3.6698,-3.6706,-3.6745,-3.6788,-3.6821,-3.6854,-3.6887,-3.6908,-3.6927,-3.6957,-3.7003,-3.7031,-3.7085,-3.7128,-3.7169,-3.7188,-3.7187,-3.7187,-3.7197,-3.7197,-3.7191,-3.7196,-3.7089,-3.7184,-3.7184,-3.7183,-3.7183,-3.7182,-3.6752,-3.6785,-3.6821,-3.6864,-3.6891,-3.6922,-3.6955,-3.6976,-3.7014,-3.7061,-3.7066,-3.7115,-3.7147,-3.7203,-3.7224,-3.7262,-3.7252,-3.7267,-3.7271,-3.7275,-3.7278,-3.7184,-3.7269,-3.7269,-3.7269,-3.7269,-3.7269,0,-3.683,-3.6854,-3.6894,-3.6941,-3.6976,-3.6972,-3.7008,-3.7037,-3.7081,-3.7112,-3.7148,-3.7201,-3.7243,-3.7268,-3.731,-3.7336,-3.7336,-3.7347,-3.7346,-3.735,-3.7284,-3.7271,-3.7346,-3.7346,-3.7346,-3.7346,-3.7346,-3.7346,-3.6875,-3.6932,-3.6944,-3.7014,-3.7036,-3.7086,-3.7107,-3.7136,-3.7161,-3.7221,-3.7256,-3.7273,-3.7302,-3.7347,-3.7385,-3.7392,-3.7408,-3.7419,-3.7425,-3.7363,-3.7355,-3.7347,-3.7336,-3.7422,-3.7423,-3.7488,-3.7489,-3.749]}]]